Regional Weather Roundup
Issued by NWS Northern Indiana

Home | Current Version | Previous Version | Graphics & Text | Print | Product List | Glossary On
Versions: 1 2 3 4 5 6 7 8 9 10 11 12 13 14 15 16 17 18 19 20 21 22 23 24 25 26 27 28 29 30 31 32 33 34 35 36 37 38 39 40 41 42 43 44 45 46 47 48 49 50
000
ASUS43 KIWX 252110
RWRIWX

KIWX WEATHER ROUNDUP
NATIONAL WEATHER SERVICE NORTHERN INDIANA
500 PM EDT SAT MAR 25 2017

NOTE: "FAIR" INDICATES FEW OR NO CLOUDS BELOW 12,000 FEET WITH NO
SIGNIFICANT WEATHER AND/OR OBSTRUCTIONS TO VISIBILITY.

* THESE STATIONS ARE NOT UNDER NWS QUALITY CONTROL. THEY ALSO MAY NOT
  REPORT WEATHER SUCH AS PRECIPITATION OR FOG.

INZ001>027-252200-
NORTHERN INDIANA

CITY           SKY/WX    TMP DP  RH WIND       PRES   REMARKS
GARY*          LGT RAIN  48  46  93 CALM      29.96F
VALPARAISO     CLOUDY    63  56  78 E8        29.96F
MICHIGAN CITY* CLOUDY    59  52  77 E9        29.97F
LAPORTE*       CLOUDY    61  53  75 E13       29.98F
KNOX*          CLOUDY    70  30  23 S7        29.95F
SOUTH BEND     CLOUDY    57  49  74 E14G21    30.01F
ELKHART*       MOSUNNY   57  48  72 E12       30.02S
GOSHEN         CLOUDY    59  47  64 E17       30.02R
MONTICELLO*    CLOUDY    69  52  54 S6        29.95R
LOGANSPORT*    LGT RAIN  66  55  68 S9        29.98R
ROCHESTER*     CLOUDY    72  52  49 SE9       29.97F
WARSAW*        CLOUDY    63  50  63 E16G22    30.00F
ANGOLA*        SUNNY     52  43  71 E21       30.09R
FORT WAYNE     CLOUDY    61  48  62 E20       30.03S
HUNTINGTON*    CLOUDY    64  50  61 E13G20    30.00S
PERU/GRISSOM   CLOUDY    71  54  54 S17       29.95F
MARION*        PTSUNNY   73  52  46 S9        29.99F

$$
INZ028>050-252200-
CENTRAL INDIANA

CITY           SKY/WX    TMP DP  RH WIND       PRES   REMARKS
LAFAYETTE      CLOUDY    69  54  58 S7        29.94S
KOKOMO*        CLOUDY    70  54  56 S18       29.98F
MUNCIE*        CLOUDY    75  51  43 SE13      29.99F
INDIANAPOLIS   CLOUDY    74  51  44 S14       29.95F

$$
MIZ043>046-050>051-056>058-064>065-071>073-077>080-252200-
SOUTHWEST LOWER MICHIGAN

CITY           SKY/WX    TMP DP  RH WIND       PRES   REMARKS
BATTLE CREEK   CLOUDY    45  43  93 E14       30.10F
BENTON HARBOR  CLOUDY    52  46  80 E13       30.02F
COLDWATER*     CLOUDY    52  45  77 E15       30.08F
HILLSDALE*     CLOUDY    45  41  87 E17G23    30.12R FOG
HOLLAND        CLOUDY    43  40  89 E17G24    30.08F
GRAND RAPIDS   CLOUDY    41  37  86 E21G29    30.13F
KALAMAZOO      CLOUDY    47  42  83 E13G18    30.09F
STURGIS*       CLOUDY    57  47  70 E17G24    30.05R
THREE RIVERS*  PTSUNNY   54  47  79 E12G17    30.06F

$$
OHZ001>008-015>018-024>025-252200-
NORTHWEST OHIO

CITY           SKY/WX    TMP DP  RH WIND       PRES   REMARKS
WAUSEON*       CLOUDY    45  39  81 NE21      30.13R
DEFIANCE       CLOUDY    49  41  74 E15       30.10R
FINDLAY        PTSUNNY   57  44  62 NE16      30.08F
TOLEDO EXPRESS CLOUDY    41  37  86 E16G24    30.14F
TOLEDO METCALF CLOUDY    42  38  85 NE13      30.16F
LIMA           MOSUNNY   73  53  49 SE10      30.04F

$$
AND FOR LAKE MICHIGAN COASTAL AND OPEN LAKE BUOY OBSERVATIONS

STATION/POSITION TEMP    WIND        PRES    VSBY  WAVE
                 AIR SEA DIR/SP/G                  HT/PER
                 (F)     (DEG/KT/KT) (MB)    (MI)  (FT/S)
CALUMET HARBOR    44     330/  7/ 10 1014.4F
MICHIGAN CITY     60      80/ 13/ 16   N/A
BURNS HARBOR      47      60/  7/  8 1014.9F

$$
&&




USA.gov is the U.S. government's official web portal to all federal, state and local government web resources and services.